Location: Ferma
(41.9500°N, 44.5167°E)
Time: 03:22:29
(UTC+00:00)

NOSS 2-3 (D) - Pass Details

Date: 31 May 2022
Orbit: 536 x 1674 km, 63.3° (Epoch: 02 June)

Event Time Altitude Azimuth Distance (km) Brightness Sun altitude
Rises 18:47:19 0° 327° (NNW) 3,451 9.1 -19.1°
Reaches altitude 10° 18:49:34 10° 331° (NNW) 2,653 8.0 -19.3°
Maximum altitude 18:55:51 61° 52° (NE) 1,286 5.1 -19.9°
Enters shadow 19:00:24 27° 123° (ESE) 2,251 5.9 -20.4°
